C/2018 W2 ( Africano )

Japanese version
Home page
Updated on November 10, 2019

---------------------------------------------------------------------

* Profile

Discovery Date November 27, 2018
Magnitude 18.3 mag and 18.2 mag
Discoverer B. M. Africano (Mount Lemmon), H. Groeller (Catalina Sky Survey)

* Pictures

* Orbital Elements

Epoch 2019 Aug. 25.0 TT = JDT 2458720.5
T 2019 Sept. 5.72955 TT                                 Williams
q   1.4546667            (2000.0)            P               Q
z  -0.0005217      Peri.  157.97322     +0.92110264     +0.38824895
 +/-0.0000004      Node   181.84962     +0.04815173     -0.04006017
e   1.0007589      Incl.  116.61563     +0.38633060     -0.92068341
From 1580 observations 2018 Nov. 27-2019 Nov. 2, mean residual 0".5.

* Finding Charts

* Magnitudes Graph

        m1 = 8.0 + 5 log d + 12.5 log r

---------------------------------------------------------------------

The orbital elements are published on M.P.E.C. 2019-V116.
The charts are made with StellaNavigator Ver.10 (AstroArts).
The magnitudes graphs are made with Comet for Windows.

---------------------------------------------------------------------

Copyright(C) Seiichi Yoshida (comet@aerith.net). All rights reserved.